Location: Unspecified
(41.5516°N, 88.1098°W)
Time: 10:34:23
(UTC-05:00)

Cosmos 1674 - Visible Passes

Search period start: 26 April 2018 00:00
Search period end: 06 May 2018 00:00
Orbit: 496 x 522 km, 82.5° (Epoch: 25 April)

Date Brightness Start Highest point End Pass type
(mag) Time Alt. Az. Time Alt. Az. Time Alt. Az.
26 Apr 4.0 05:09:01 10° SSE 05:12:36 42° E 05:16:11 10° NNE visible
27 Apr 4.5 04:52:10 10° SSE 04:55:33 32° E 04:58:56 10° NNE visible
28 Apr 5.0 04:35:24 10° SE 04:38:30 25° E 04:41:37 10° NE visible
29 Apr 5.3 04:18:43 10° SE 04:21:28 19° E 04:24:13 10° NE visible
30 Apr 5.5 04:02:13 10° ESE 04:04:27 15° E 04:06:41 10° NE visible
01 May 5.7 03:46:02 10° ESE 03:47:27 12° E 03:48:51 10° ENE visible
02 May 2.8 05:01:46 10° SSW 05:05:28 55° W 05:09:10 10° N visible
03 May 2.6 04:44:36 10° SSW 04:48:21 74° W 04:52:06 10° N visible
04 May 2.7 04:27:41 11° S 04:31:15 83° E 04:34:59 10° N visible
05 May 3.0 04:11:07 15° S 04:14:08 62° E 04:17:51 10° NNE visible
